This is the latest recevied weather packets stored in our database for station/object EA5LU-10. If no packets are shown the sender has not sent any weather packets the latest 10 day(s).
| Time | Temp. | Humidity | Pressure | Rain* | Wind** | Luminosity | Snow |
|---|---|---|---|---|---|---|---|
| 1777989331 | 30° C | 38% | 1001.7 hPa | - | - | - | - |
| 1777988430 | 29.44° C | 40% | 1001.9 hPa | - | - | - | - |
| 1777987529 | 30° C | 39% | 1002.1 hPa | - | - | - | - |
| 1777986628 | 29.44° C | 40% | 1002.2 hPa | - | - | - | - |
| 1777985728 | 28.33° C | 40% | 1002.5 hPa | - | - | - | - |
| 1777984827 | 27.22° C | 44% | 1002.5 hPa | - | - | - | - |
| 1777983926 | 26.67° C | 46% | 1002.6 hPa | - | - | - | - |
| 1777983025 | 26.67° C | 40% | 1002.7 hPa | - | - | - | - |
| 1777982124 | 26.11° C | 37% | 1002.9 hPa | - | - | - | - |
| 1777981224 | 26.11° C | 44% | 1003.1 hPa | - | - | - | - |
| 1777980323 | 25.56° C | 42% | 1003.3 hPa | - | - | - | - |
| 1777979422 | 25.56° C | 41% | 1003.3 hPa | - | - | - | - |
| 1777978521 | 24.44° C | 45% | 1003.5 hPa | - | - | - | - |
| 1777977620 | 25° C | 39% | 1003.5 hPa | - | - | - | - |
| 1777976719 | 25° C | 36% | 1003.4 hPa | - | - | - | - |
| 1777975819 | 24.44° C | 36% | 1003.5 hPa | - | - | - | - |
| 1777974918 | 24.44° C | 36% | 1003.5 hPa | - | - | - | - |
| 1777974017 | 24.44° C | 38% | 1003.3 hPa | - | - | - | - |
| 1777973116 | 23.89° C | 37% | 1003.3 hPa | - | - | - | - |
| 1777972215 | 23.89° C | 34% | 1003.2 hPa | - | - | - | - |
| 1777971314 | 23.33° C | 34% | 1003.3 hPa | - | - | - | - |
| 1777970413 | 23.33° C | 35% | 1003.3 hPa | - | - | - | - |
| 1777969512 | 22.22° C | 36% | 1003.4 hPa | - | - | - | - |
| 1777968612 | 22.22° C | 41% | 1003.4 hPa | - | - | - | - |
| 1777967711 | 21.67° C | 41% | 1003.5 hPa | - | - | - | - |
* Rain since midnight (hover to see other rain measurements)
** Current wind speed in m/s (hover to see current wind gust speed)